Ashland, WI

8:18 PM CST on January 16, 2018 (GMT -0600)
Kennedy Memorial

Weather History for KASX - May, 2013

Change the Weather History Date:

Tuesday, May 21, 2013

  Actual Average Record
Temperature  
Mean Temperature 42 °F -  
Max Temperature 46 °F 66 °F 89 °F (1964)
Min Temperature 39 °F 40 °F 27 °F (1986)
Degree Days  
Heating Degree Days 22    
Moisture  
Dew Point 40 °F    
Average Humidity 95    
Maximum Humidity 100    
Minimum Humidity 87    
Precipitation  
Precipitation 0.79 in - - ()
Sea Level Pressure  
Sea Level Pressure 29.73 in    
Wind  
Wind Speed 13 mph (NNE)    
Max Wind Speed 17 mph    
Max Gust Speed 24 mph    
Visibility 2 miles    
Events Fog , Rain    
Averages and records for this station are not official NWS values.
T = Trace of Precipitation, MM = Missing Value Source: NWS Daily Summary

Daily Weather History Graph

Daily Weather History Graph

Search for Another Location

Airport or City:

Trip Planner

Search our weather history database for the weather conditions in past years. The results will help you decide how hot, cold, wet, or windy it might be!

Date:

Astronomy

May. 21, 2013 Rise Set
Actual Time 5:22 AM CDT 8:38 PM CDT
Civil Twilight 4:46 AM CDT 9:15 PM CDT
Nautical Twilight 3:58 AM CDT 10:02 PM CDT
Astronomical Twilight 2:59 AM CDT 11:03 PM CDT
Moon 4:40 PM CDT (5/21) 3:05 AM CDT (5/21)
Length of Visible Light 16h 28m
Length of Day
15h 15m
Waxing Gibbous, 84% of the Moon is Illuminated
May 21
Waxing Gibbous
May 24
Full
May 31
Last Quarter
Jun 8
New
Jun 16
First Quarter

Hourly Weather History & Observations

Time (CDT) Temp. Windchill Dew Point Humidity Pressure Visibility Wind Dir Wind Speed Gust Speed Precip Events Conditions
12:20 AM 39.2 °F 32.0 °F 39.2 °F 100% 29.73 in 0.2 mi NE 11.5 mph - N/A Fog Fog
12:53 AM 39.9 °F 32.9 °F 39.0 °F 97% 29.74 in 0.2 mi NNE 11.5 mph - N/A Fog Fog
1:04 AM 39.2 °F 32.0 °F 39.2 °F 100% 29.71 in 0.5 mi NE 11.5 mph 19.6 mph N/A Fog Fog
1:53 AM 39.9 °F 32.1 °F 39.0 °F 97% 29.71 in 0.5 mi NNE 13.8 mph - N/A Fog Fog
2:12 AM 39.2 °F 31.2 °F 39.2 °F 100% 29.69 in 0.2 mi NNE 13.8 mph - N/A Fog Fog
2:53 AM 39.9 °F 32.1 °F 39.0 °F 97% 29.70 in 0.2 mi NNE 13.8 mph 19.6 mph 0.01 in Fog Fog
3:53 AM 39.9 °F 32.5 °F 39.0 °F 97% 29.68 in 0.2 mi NE 12.7 mph - N/A Fog Fog
4:04 AM 39.2 °F 30.8 °F 39.2 °F 100% 29.66 in 0.5 mi NE 15.0 mph - N/A Fog Fog
4:53 AM 39.9 °F 31.8 °F 39.0 °F 97% 29.69 in 0.5 mi NNE 15.0 mph 20.7 mph 0.01 in Fog , Rain Light Rain
5:18 AM 39.2 °F 32.0 °F 39.2 °F 100% 29.68 in 1.2 mi NE 11.5 mph 20.7 mph 0.03 in Rain Light Rain
5:53 AM 39.9 °F 32.9 °F 39.0 °F 97% 29.71 in 2.0 mi NNE 11.5 mph - 0.10 in Rain Light Rain
6:03 AM 39.2 °F 31.6 °F 39.2 °F 100% 29.68 in 4.0 mi NNE 12.7 mph - 0.02 in Rain Rain
6:53 AM 39.9 °F 32.9 °F 39.0 °F 97% 29.69 in 5.0 mi NE 11.5 mph - 0.17 in Rain Light Rain
7:53 AM 41.0 °F 33.1 °F 39.0 °F 93% 29.69 in 4.0 mi NE 15.0 mph - 0.11 in Rain Light Rain
8:29 AM 41.0 °F 33.1 °F 39.2 °F 93% 29.67 in 1.8 mi NNE 15.0 mph 20.7 mph 0.16 in Rain Heavy Rain
8:36 AM 41.0 °F 33.5 °F 39.2 °F 93% 29.67 in 1.2 mi NNE 13.8 mph 20.7 mph 0.25 in Rain Heavy Rain
8:53 AM 41.0 °F 33.5 °F 39.0 °F 93% 29.70 in 2.5 mi NE 13.8 mph 23.0 mph 0.32 in Rain Light Rain
9:00 AM 41.0 °F 32.8 °F 39.2 °F 93% 29.68 in 5.0 mi NNE 16.1 mph 23.0 mph 0.01 in Rain Light Rain
9:53 AM 41.0 °F 35.2 °F 39.9 °F 96% 29.71 in 10.0 mi NE 9.2 mph 19.6 mph 0.04 in   Overcast
10:53 AM 42.1 °F 34.9 °F 39.9 °F 92% 29.71 in 10.0 mi NNE 13.8 mph 21.9 mph N/A   Overcast
11:49 AM 42.8 °F 35.8 °F 42.8 °F 100% 29.69 in 2.5 mi NNE 13.8 mph 18.4 mph N/A   Overcast
11:53 AM 43.0 °F 37.7 °F 42.1 °F 97% 29.72 in 2.5 mi NNE 9.2 mph - N/A   Overcast
12:02 PM 42.8 °F 35.4 °F 41.0 °F 93% 29.69 in 4.0 mi North 15.0 mph - N/A   Overcast
12:18 PM 42.8 °F 36.6 °F 41.0 °F 93% 29.69 in 2.0 mi North 11.5 mph - N/A   Overcast
12:37 PM 44.6 °F 38.1 °F 42.8 °F 93% 29.70 in 1.8 mi North 13.8 mph - N/A   Overcast
12:53 PM 44.1 °F 37.4 °F 41.0 °F 89% 29.72 in 2.0 mi NNE 13.8 mph - N/A   Overcast
1:46 PM 44.6 °F 39.2 °F 42.8 °F 93% 29.70 in 3.0 mi NNE 10.4 mph - N/A   Overcast
1:53 PM 44.1 °F 39.0 °F 42.1 °F 93% 29.73 in 3.0 mi NNE 9.2 mph - N/A   Overcast
2:15 PM 44.6 °F 39.2 °F 42.8 °F 93% 29.71 in 2.5 mi North 10.4 mph - N/A   Overcast
2:24 PM 44.6 °F 38.1 °F 42.8 °F 93% 29.71 in 4.0 mi North 13.8 mph - N/A   Overcast
2:53 PM 46.0 °F 39.6 °F 43.0 °F 89% 29.73 in 9.0 mi NNE 15.0 mph - N/A   Overcast
3:53 PM 45.0 °F 39.3 °F 42.1 °F 90% 29.74 in 10.0 mi NE 11.5 mph - N/A   Overcast
4:53 PM 43.0 °F 35.4 °F 41.0 °F 93% 29.75 in 3.0 mi NNE 16.1 mph - N/A   Overcast
5:01 PM 42.8 °F 36.2 °F 41.0 °F 93% 29.74 in 2.0 mi NNE 12.7 mph - N/A   Overcast
5:25 PM 42.8 °F 35.8 °F 39.2 °F 87% 29.74 in 1.8 mi NNE 13.8 mph - N/A   Overcast
5:53 PM 41.0 °F 33.5 °F 39.9 °F 96% 29.77 in 1.0 mi NNE 13.8 mph - N/A   Overcast
6:53 PM 41.0 °F 33.9 °F 39.9 °F 96% 29.78 in 1.2 mi NNE 12.7 mph - N/A   Overcast
7:49 PM 41.0 °F 32.5 °F 39.2 °F 93% 29.76 in 0.8 mi NNE 17.3 mph 24.2 mph 0.00 in   Overcast
7:53 PM 39.9 °F 32.5 °F 39.0 °F 97% 29.78 in 0.8 mi NNE 12.7 mph 24.2 mph 0.01 in Rain Light Rain
8:25 PM 39.2 °F 30.8 °F 39.2 °F 100% 29.77 in 0.2 mi NNE 15.0 mph - 0.00 in Fog Fog
8:40 PM 39.2 °F 31.6 °F 39.2 °F 100% 29.78 in 0.5 mi NE 12.7 mph - 0.00 in Fog Fog
8:53 PM 39.9 °F 32.5 °F 39.0 °F 97% 29.80 in 0.5 mi NNE 12.7 mph - 0.00 in Fog Fog
9:24 PM 39.2 °F 32.5 °F 39.2 °F 100% 29.79 in 1.2 mi NE 10.4 mph - N/A   Overcast
9:53 PM 39.9 °F 32.1 °F 39.0 °F 97% 29.82 in 1.2 mi NE 13.8 mph - 0.01 in   Overcast
10:53 PM 39.9 °F 32.9 °F 39.0 °F 97% 29.83 in 1.2 mi NE 11.5 mph - N/A   Overcast
11:53 PM 39.9 °F 31.4 °F 39.0 °F 97% 29.83 in 2.0 mi NE 16.1 mph - 0.01 in   Overcast